TimeEDT,TemperatureF,Dew PointF,Humidity,Sea Level PressureIn,VisibilityMPH,Wind Direction,Wind SpeedMPH,Gust SpeedMPH,PrecipitationIn,Events,Conditions,WindDirDegrees,DateUTC
12:00 AM,50.4,50.0,99,30.09,-9999.0,ESE,2.3,-,N/A,,Unknown,110,2013-07-12 04:00:00
1:00 AM,46.2,45.7,98,30.10,-9999.0,Calm,Calm,-,N/A,,Unknown,0,2013-07-12 05:00:00
2:00 AM,45,45,99,30.12,,ESE,1.2,,,,,120,2013-07-12 06:00:00
2:00 AM,45.1,44.8,99,30.12,-9999.0,ESE,1.2,-,N/A,,Unknown,120,2013-07-12 06:00:00
3:00 AM,43.3,43.2,99,30.14,-9999.0,ESE,1.2,-,N/A,,Unknown,120,2013-07-12 07:00:00
4:00 AM,47.8,47.8,100,30.14,-9999.0,ESE,1.2,-,N/A,,Unknown,110,2013-07-12 08:00:00
5:00 AM,48.2,48.2,100,30.17,-9999.0,SSW,1.2,-,N/A,,Unknown,200,2013-07-12 09:00:00
6:00 AM,48.0,48.0,100,30.19,-9999.0,WSW,2.3,-,N/A,,Unknown,250,2013-07-12 10:00:00
7:00 AM,48.4,48.4,100,30.21,-9999.0,SW,2.3,-,N/A,,Unknown,220,2013-07-12 11:00:00
8:00 AM,49,49,100,30.22,,NW,1.2,,,,,320,2013-07-12 12:00:00
8:00 AM,49.3,49.3,100,30.22,-9999.0,NW,1.2,-,N/A,,Unknown,320,2013-07-12 12:00:00
9:00 AM,52.0,52.0,100,30.24,-9999.0,SW,2.3,-,N/A,,Unknown,220,2013-07-12 13:00:00
10:00 AM,60.1,54.0,80,30.23,-9999.0,NW,2.3,-,N/A,,Unknown,320,2013-07-12 14:00:00
11:00 AM,68.2,48.0,48,30.22,-9999.0,South,3.5,-,N/A,,Unknown,190,2013-07-12 15:00:00
12:00 PM,72.0,45.9,39,30.21,-9999.0,SSE,4.6,-,N/A,,Unknown,160,2013-07-12 16:00:00
1:00 PM,75.6,47.1,36,30.20,-9999.0,South,3.5,-,N/A,,Unknown,180,2013-07-12 17:00:00
2:00 PM,76.1,45.3,33,30.19,-9999.0,ESE,3.5,-,N/A,,Unknown,120,2013-07-12 18:00:00
3:00 PM,78.1,45.3,31,30.19,-9999.0,ESE,4.6,-,N/A,,Unknown,120,2013-07-12 19:00:00
4:00 PM,79.2,43.3,28,30.17,-9999.0,South,3.5,-,N/A,,Unknown,170,2013-07-12 20:00:00
5:00 PM,78.3,45.0,31,30.17,-9999.0,SE,4.6,-,N/A,,Unknown,130,2013-07-12 21:00:00
6:00 PM,78.8,45.7,31,30.15,-9999.0,SE,3.5,-,N/A,,Unknown,140,2013-07-12 22:00:00
7:00 PM,77.5,44.8,31,30.16,-9999.0,SE,4.6,-,N/A,,Unknown,140,2013-07-12 23:00:00
8:00 PM,75,47,27,30.17,,SSE,3.5,,,,,160,2013-07-13 00:00:00
8:00 PM,74.7,47.5,38,30.17,-9999.0,SSE,3.5,-,N/A,,Unknown,160,2013-07-13 00:00:00
9:00 PM,65.1,52.7,64,30.18,-9999.0,East,3.5,-,N/A,,Unknown,100,2013-07-13 01:00:00
10:00 PM,59.4,53.2,80,30.21,-9999.0,East,2.3,-,N/A,,Unknown,100,2013-07-13 02:00:00
11:00 PM,55.0,51.3,87,30.24,-9999.0,East,1.2,-,N/A,,Unknown,100,2013-07-13 03:00:00